When you browse on this site, cookies collect data to enhance your experience and personalize the content and advertising you see.
Visit our Privacy Policy to learn more. By continuing to use the site, you agree to this use of cookies and data.
  • In Portugal
  • List of Countries
  • For 7 days
  • Water Temperature
  • Weather Map
  • Weather Widgets
  • user-avatar
    Login

    Hourly Weather Albany

    Today, 21 August, Wednesday

    Time Temperature Precipitation Wind Pressure Humidity
    00:00 +10°C° 0 mm 2 mps 768 mmHg 85%
    01:00 +9°C° 0 mm 2 mps 768 mmHg 84%
    02:00 +9°C° 0 mm 2 mps 767 mmHg 82%
    03:00 +9°C° 0 mm 2 mps 767 mmHg 81%
    04:00 +8°C° 0 mm 2 mps 767 mmHg 80%
    05:00 +8°C° 0 mm 3 mps 767 mmHg 79%
    06:00 +9°C° 0 mm 3 mps 767 mmHg 76%
    07:00 +9°C° 0 mm 3 mps 767 mmHg 74%
    08:00 +10°C° 0 mm 4 mps 767 mmHg 68%
    09:00 +13°C° 0 mm 4 mps 766 mmHg 62%
    10:00 +15°C° 0 mm 5 mps 766 mmHg 56%
    11:00 +17°C° 0 mm 5 mps 766 mmHg 51%
    12:00 +19°C° 0 mm 5 mps 765 mmHg 51%
    13:00 +20°C° 0 mm 5 mps 764 mmHg 51%
    14:00 +21°C° 0 mm 5 mps 764 mmHg 52%
    15:00 +20°C° 0 mm 4 mps 763 mmHg 57%
    16:00 +19°C° 0 mm 4 mps 763 mmHg 63%
    17:00 +18°C° 0 mm 4 mps 763 mmHg 69%
    18:00 +15°C° 0 mm 4 mps 763 mmHg 70%
    19:00 +14°C° 0 mm 4 mps 763 mmHg 71%
    20:00 +13°C° 0 mm 5 mps 763 mmHg 71%
    21:00 +13°C° 0 mm 5 mps 762 mmHg 70%
    22:00 +12°C° 0 mm 5 mps 762 mmHg 70%
    23:00 +12°C° 0 mm 5 mps 762 mmHg 69%

    Tomorrow, 22 August, Thursday

    Time Temperature Precipitation Wind Pressure Humidity
    00:00 +12°C° 0 mm 5 mps 761 mmHg 65%
    01:00 +11°C° 0 mm 6 mps 761 mmHg 61%
    02:00 +11°C° 0 mm 6 mps 760 mmHg 58%
    03:00 +11°C° 0 mm 6 mps 760 mmHg 54%
    04:00 +11°C° 0 mm 7 mps 759 mmHg 50%
    05:00 +11°C° 0 mm 7 mps 759 mmHg 46%
    06:00 +11°C° 0 mm 7 mps 758 mmHg 47%
    07:00 +11°C° 0 mm 7 mps 758 mmHg 48%
    08:00 +11°C° 0 mm 7 mps 758 mmHg 49%
    09:00 +13°C° 0 mm 8 mps 758 mmHg 48%
    10:00 +16°C° 0 mm 8 mps 757 mmHg 48%
    11:00 +18°C° 0 mm 8 mps 757 mmHg 47%
    12:00 +18°C° 0 mm 8 mps 756 mmHg 47%
    13:00 +20°C° 0 mm 8 mps 755 mmHg 47%
    14:00 +21°C° 0 mm 7 mps 754 mmHg 48%
    15:00 +20°C° 0 mm 7 mps 754 mmHg 52%
    16:00 +19°C° 0 mm 6 mps 754 mmHg 57%
    17:00 +17°C° 0 mm 6 mps 754 mmHg 61%
    18:00 +16°C° 0.4 mm 6 mps 754 mmHg 71%
    19:00 +15°C° 0.4 mm 6 mps 754 mmHg 81%
    20:00 +14°C° 0.4 mm 6 mps 755 mmHg 90%
    21:00 +14°C° 1.9 mm 6 mps 755 mmHg 91%
    22:00 +12°C° 1.9 mm 7 mps 755 mmHg 92%
    23:00 +11°C° 1.9 mm 8 mps 756 mmHg 93%

    Day after tomorrow, 23 August, Friday

    Time Temperature Precipitation Wind Pressure Humidity
    00:00 +10°C° 0.7 mm 7 mps 756 mmHg 90%
    01:00 +10°C° 0.7 mm 7 mps 756 mmHg 87%
    02:00 +9°C° 0.7 mm 7 mps 756 mmHg 84%
    03:00 +8°C° 0.2 mm 7 mps 757 mmHg 86%
    04:00 +8°C° 0.2 mm 7 mps 758 mmHg 89%
    05:00 +6°C° 0.2 mm 7 mps 758 mmHg 91%
    06:00 +6°C° 0.4 mm 7 mps 759 mmHg 87%
    07:00 +6°C° 0.4 mm 8 mps 760 mmHg 83%
    08:00 +6°C° 0.4 mm 8 mps 761 mmHg 79%
    09:00 +7°C° 0.1 mm 8 mps 761 mmHg 74%
    10:00 +9°C° 0.1 mm 8 mps 762 mmHg 69%
    11:00 +9°C° 0.1 mm 7 mps 762 mmHg 64%
    12:00 +9°C° 0.1 mm 7 mps 762 mmHg 63%
    13:00 +9°C° 0.1 mm 7 mps 762 mmHg 62%
    14:00 +10°C° 0.1 mm 7 mps 762 mmHg 61%
    15:00 +9°C° 0.1 mm 6 mps 763 mmHg 63%
    16:00 +9°C° 0.1 mm 6 mps 764 mmHg 64%
    17:00 +8°C° 0.1 mm 5 mps 765 mmHg 66%
    18:00 +8°C° 0 mm 4 mps 765 mmHg 65%
    19:00 +7°C° 0 mm 4 mps 766 mmHg 64%
    20:00 +8°C° 0 mm 3 mps 766 mmHg 63%
    21:00 +8°C° 0 mm 3 mps 766 mmHg 65%
    22:00 +7°C° 0 mm 2 mps 767 mmHg 66%
    23:00 +7°C° 0 mm 2 mps 767 mmHg 68%

    24 August, Saturday

    Time Temperature Precipitation Wind Pressure Humidity
    00:00 +7°C° 0 mm 2 mps 767 mmHg 67%
    01:00 +8°C° 0 mm 1 mps 767 mmHg 67%
    02:00 +8°C° 0 mm 1 mps 766 mmHg 67%
    03:00 +8°C° 0 mm 1 mps 766 mmHg 66%
    04:00 +9°C° 0 mm 1 mps 767 mmHg 65%
    05:00 +9°C° 0 mm 1 mps 767 mmHg 64%
    06:00 +9°C° 0 mm 1 mps 767 mmHg 64%
    07:00 +9°C° 0 mm 1 mps 767 mmHg 65%
    08:00 +8°C° 0 mm 0 mps 767 mmHg 65%
    09:00 +9°C° 0 mm 0 mps 767 mmHg 62%
    10:00 +10°C° 0 mm 0 mps 767 mmHg 59%
    11:00 +12°C° 0 mm 1 mps 767 mmHg 55%
    12:00 +12°C° 0 mm 1 mps 767 mmHg 56%
    13:00 +12°C° 0 mm 1 mps 766 mmHg 56%
    14:00 +12°C° 0 mm 1 mps 766 mmHg 57%
    15:00 +12°C° 0 mm 1 mps 766 mmHg 60%
    16:00 +11°C° 0 mm 1 mps 766 mmHg 62%
    17:00 +11°C° 0 mm 1 mps 766 mmHg 65%
    18:00 +11°C° 0 mm 1 mps 766 mmHg 66%
    19:00 +9°C° 0 mm 2 mps 766 mmHg 66%
    20:00 +9°C° 0 mm 2 mps 767 mmHg 67%
    21:00 +9°C° 0 mm 2 mps 766 mmHg 69%
    22:00 +9°C° 0 mm 2 mps 766 mmHg 70%
    23:00 +9°C° 0 mm 2 mps 766 mmHg 71%

    25 August, Sunday

    Time Temperature Precipitation Wind Pressure Humidity
    00:00 +9°C° 0 mm 2 mps 766 mmHg 71%
    01:00 +9°C° 0 mm 2 mps 765 mmHg 71%
    02:00 +9°C° 0 mm 2 mps 765 mmHg 71%
    03:00 +9°C° 0 mm 2 mps 765 mmHg 71%
    04:00 +9°C° 0 mm 2 mps 765 mmHg 70%
    05:00 +8°C° 0 mm 2 mps 765 mmHg 70%
    06:00 +9°C° 0 mm 3 mps 765 mmHg 71%
    07:00 +9°C° 0 mm 3 mps 765 mmHg 72%
    08:00 +9°C° 0 mm 3 mps 765 mmHg 73%
    09:00 +10°C° 0 mm 2 mps 765 mmHg 66%
    10:00 +13°C° 0 mm 2 mps 765 mmHg 59%
    11:00 +15°C° 0 mm 2 mps 765 mmHg 52%
    12:00 +15°C° 0 mm 2 mps 765 mmHg 53%
    13:00 +15°C° 0 mm 2 mps 764 mmHg 54%
    14:00 +15°C° 0 mm 2 mps 764 mmHg 55%
    15:00 +14°C° 0 mm 2 mps 764 mmHg 60%
    16:00 +13°C° 0 mm 2 mps 764 mmHg 64%
    17:00 +13°C° 0 mm 1 mps 764 mmHg 69%
    18:00 +11°C° 0 mm 1 mps 765 mmHg 72%
    19:00 +10°C° 0 mm 1 mps 765 mmHg 76%
    20:00 +7°C° 0 mm 0 mps 765 mmHg 79%
    21:00 +8°C° 0 mm 1 mps 765 mmHg 81%
    22:00 +8°C° 0 mm 1 mps 765 mmHg 83%
    23:00 +6°C° 0 mm 2 mps 765 mmHg 85%

    26 August, Monday

    Time Temperature Precipitation Wind Pressure Humidity
    00:00 +6°C° 0 mm 2 mps 765 mmHg 85%
    01:00 +6°C° 0 mm 2 mps 765 mmHg 86%
    02:00 +6°C° 0 mm 2 mps 765 mmHg 86%
    03:00 +6°C° 0 mm 2 mps 765 mmHg 86%
    04:00 +6°C° 0 mm 2 mps 765 mmHg 86%
    05:00 +6°C° 0 mm 2 mps 765 mmHg 86%
    06:00 +6°C° 0 mm 2 mps 765 mmHg 83%
    07:00 +7°C° 0 mm 2 mps 765 mmHg 80%
    08:00 +8°C° 0 mm 2 mps 766 mmHg 77%
    09:00 +10°C° 0 mm 2 mps 765 mmHg 70%
    10:00 +13°C° 0 mm 2 mps 765 mmHg 62%
    11:00 +15°C° 0 mm 2 mps 765 mmHg 54%
    12:00 +16°C° 0 mm 2 mps 764 mmHg 54%
    13:00 +17°C° 0 mm 2 mps 764 mmHg 53%
    14:00 +18°C° 0 mm 1 mps 763 mmHg 52%
    15:00 +16°C° 0 mm 2 mps 763 mmHg 58%
    16:00 +16°C° 0 mm 2 mps 763 mmHg 64%
    17:00 +15°C° 0 mm 2 mps 763 mmHg 70%
    18:00 +12°C° 0 mm 3 mps 763 mmHg 75%
    19:00 +11°C° 0 mm 3 mps 763 mmHg 80%
    20:00 +9°C° 0 mm 3 mps 764 mmHg 85%
    21:00 +9°C° 0 mm 3 mps 763 mmHg 85%
    22:00 +8°C° 0 mm 3 mps 763 mmHg 85%
    23:00 +7°C° 0 mm 4 mps 763 mmHg 85%
    Show more